CAPE
0 0 0 0 0 0 0 0 0 0 0 0 0 0 0 0 0 0 0 0 0 0 0 0 0 0 0 0 0 0 0 4 214 1299 1732 2315 2534 2531 2703 2663 2304 2097 2287 2237
0 0 0 0 0 0 0 0 0 0 0 0 0 0 0 0 0 0 0 0 0 0 0 0 0 0 0 0 0 0 0 0 66 239 1465 1642 2342 2264 2713 2827 2691 2801 2815 2524
0 0 0 0 0 0 0 0 0 0 0 0 0 0 0 0 0 0 0 0 0 0 0 0 0 0 0 0 0 0 0 0 0 246 226 1319 2671 2693 2017 2402 3088 2794 2930 2942
0 0 0 0 0 0 0 0 0 0 0 0 0 0 0 0 0 0 0 0 0 0 0 0 0 0 0 0 0 0 0 0 0 27 57 130 584 1772 1831 2029 2506 3050 3131 3072
0 0 0 0 0 0 0 0 0 0 0 0 0 0 0 0 0 0 0 0 0 0 0 0 0 0 0 0 0 0 0 0 0 0 38 133 263 622 1489 1983 2259 2860 3053 3216
0 0 0 0 0 0 0 0 0 0 0 0 0 0 0 0 0 1 1 0 0 0 0 0 0 0 0 0 0 0 0 0 0 0 10 570 653 1011 1633 1791 2067 2898 2734 2926
0 0 0 0 0 0 0 0 0 0 2 0 1 4 5 1 0 0 0 0 0 0 0 0 0 0 0 0 0 0 0 0 0 0 0 178 747 1613 1916 2480 2487 2534 2981 3004
0 2 0 0 0 0 0 1 5 15 6 9 2 3 6 0 0 0 0 0 0 0 0 0 0 0 0 0 0 0 0 0 0 0 0 29 468 842 1896 2511 2849 2911 2985 3072
0 0 0 0 0 0 0 2 0 7 14 6 1 1 0 1 5 0 0 0 0 0 0 0 0 0 0 0 0 1 4 8 1 0 74 161 353 1164 1306 2082 2324 2497 2766 2116
0 1 0 2 0 0 0 0 0 15 9 6 6 12 23 0 0 0 0 0 0 0 2 0 1 2 2 0 0 0 8 5 79 95 170 226 431 999 1601 2428 2298 2091 2339 1825
0 0 0 0 4 1 0 3 4 2 3 18 8 4 4 0 0 0 0 0 0 0 4 2 21 29 17 31 45 68 44 116 156 217 458 604 912 1125 1722 2048 2332 2372 2327 1572
2 9 12 0 0 0 10 7 0 1 10 20 16 2 0 0 0 0 0 0 0 7 11 18 39 44 35 32 67 48 90 166 247 188 413 517 559 1106 1406 1609 2089 2000 1729 1731
6 12 8 7 3 0 1 2 2 2 10 12 24 2 1 0 0 0 3 14 13 2 11 38 43 55 28 20 39 43 46 83 317 342 324 375 398 783 1083 993 908 957 1020 843
0 2 13 11 6 0 0 10 12 11 13 8 14 10 16 13 20 1 2 11 11 19 47 61 57 47 37 31 22 40 38 51 78 455 402 318 315 424 686 849 1189 1030 830 639
3 8 7 6 7 0 2 2 5 4 2 3 0 6 2 0 0 3 11 16 44 51 45 39 35 55 50 37 21 22 47 29 34 40 461 268 9 20 158 673 1052 1289 896 937
17 2 4 12 12 12 4 1 1 0 0 0 0 0 0 0 0 7 31 37 10 55 37 29 30 26 34 47 34 19 24 25 32 30 13 317 4 0 0 0 422 640 974 822
21 7 11 7 12 11 3 0 0 0 1 0 0 3 8 17 25 39 17 16 0 9 15 22 20 20 14 41 33 22 24 21 15 14 21 31 110 0 0 0 0 312 669 912
1 8 22 6 3 3 0 0 0 0 4 8 29 32 27 23 19 2 0 3 16 9 0 0 0 1 16 29 25 3 2 7 21 15 7 13 37 8 0 0 0 1 369 642
1 4 0 14 12 4 0 16 20 30 0 19 47 11 3 3 0 0 4 1 0 0 0 0 1 6 13 1 0 0 5 1 17 19 17 12 27 28 14 0 0 0 1 281
13 2 2 9 9 12 9 18 4 4 0 12 2 3 3 1 4 0 0 0 5 10 16 29 28 16 17 6 11 12 13 19 12 20 19 25 25 30 32 43 0 0 0 21
2 4 0 5 8 7 12 12 4 6 11 4 1 0 1 6 6 2 6 1 5 21 24 29 7 8 22 7 21 8 20 20 18 13 22 27 31 51 35 34 36 4 0 5
3 6 3 6 7 2 13 4 20 8 0 1 1 4 4 2 0 0 3 13 9 15 18 20 22 21 16 38 25 51 16 3 18 12 15 28 20 54 42 41 26 0 0 0
4 17 4 18 20 26 2 9 9 1 1 8 9 4 0 4 4 7 10 10 12 17 16 13 12 11 11 18 31 4 20 45 15 8 18 5 9 27 46 36 39 40 13 0
12 23 7 13 18 5 4 18 2 0 2 3 0 3 11 6 0 6 15 9 9 10 10 9 7 5 5 8 10 15 9 7 18 0 13 11 13 6 18 14 28 21 19 6
7 12 11 13 19 0 10 8 2 0 2 0 1 1 0 1 4 10 4 3 5 7 8 6 5 5 5 5 7 5 20 11 12 30 14 2 13 2 1 17 10 28 31 15
12 13 12 15 11 4 7 7 5 2 0 0 2 0 0 6 5 3 2 5 4 3 4 3 4 3 2 6 8 7 5 0 13 2 17 1 18 14 1 3 19 4 1 2
CIN
0 0 0 0 0 0 0 0 0 0 0 0 0 0 0 0 0 0 0 0 0 0 0 0 0 0 0 0 0 0 0 -113 -173 -25 -6 -4 -24 -24 -13 -15 -19 -17 -21 -42
0 0 0 0 0 0 0 0 0 0 0 0 0 0 0 0 0 0 0 0 0 0 0 0 0 0 0 0 0 0 0 0 -206 -153 -18 -11 -2 -5 -3 -5 -6 0 -1 -18
0 0 0 0 0 0 0 0 0 0 0 0 0 0 0 0 0 0 0 0 0 0 0 0 0 0 0 0 0 0 0 0 0 -180 -165 -36 -1 -1 -3 -4 -1 -5 -2 -8
0 0 0 0 0 0 0 0 0 0 0 0 0 0 0 0 0 0 0 0 0 0 0 0 0 0 0 0 0 0 0 0 0 -181 -189 -171 -91 -1 -8 -2 -1 -1 -4 -1
0 0 0 0 0 0 0 0 0 0 0 0 0 0 0 0 0 0 0 0 0 0 0 0 0 0 0 0 0 0 0 0 0 0 -197 -161 -123 -84 -6 -1 -1 -5 -3 -2
0 0 0 0 0 0 0 0 0 0 0 0 0 0 0 -3 -3 -6 -3 0 0 0 0 0 0 0 0 0 0 0 0 0 0 0 -52 -84 -93 -40 -4 0 -0 0 -13 -6
0 0 0 0 0 0 0 0 0 0 -3 0 -7 -13 -10 -10 0 0 0 0 0 0 0 0 0 0 0 0 0 0 0 0 0 0 0 -81 -56 -29 -27 -3 -0 -0 -1 -10
0 -7 0 0 0 0 -6 -7 -8 -4 -7 -7 -17 -8 -8 0 0 0 0 0 0 0 0 0 0 0 0 0 0 0 0 0 0 0 0 -73 -39 -37 -4 -3 -0 -2 -0 -3
0 0 0 0 0 -1 -3 -5 0 -12 -5 -4 -5 -6 -1 -1 -14 0 0 0 0 0 0 0 0 0 0 0 0 -2 -2 -2 -0 -0 -29 -41 -29 -13 -15 -1 -5 -8 -14 0
0 -2 0 -5 0 0 0 0 -1 -5 -2 -3 -6 -7 -7 -10 -1 0 0 0 0 0 -4 -1 -1 -1 -2 -0 0 0 -4 -19 -3 -3 -7 -26 -21 -7 -12 -1 -6 -12 -22 -33
-1 -1 0 0 -5 -2 -6 -6 -5 -7 -7 -2 -2 -4 -10 0 0 0 0 0 0 0 -8 -8 -5 -5 -4 -6 -3 -2 -6 -3 -14 -3 -7 -10 -3 -1 -3 -4 -4 -8 -23 -41
-6 -1 -1 -0 0 -6 -6 -6 -5 -4 -2 -4 -3 -2 0 -1 0 0 0 0 0 -8 -7 -5 -4 -2 -5 -5 -4 -2 -2 -5 -3 -43 -32 -40 -47 -2 -2 -3 -1 -11 -14 -21
-3 -1 -1 -2 -3 0 -5 -4 -6 -5 -6 -6 -2 -5 -2 0 -6 0 -9 -7 -7 -6 -9 -7 -5 -4 -5 -3 -3 -2 -5 -4 -4 -2 -15 -36 -35 -9 -1 -1 -26 -25 -22 -89
0 -2 -2 -3 -6 0 -2 -3 -3 -4 -5 -3 -5 -7 -6 -7 -8 -5 -14 -5 -8 -7 -4 -7 -5 -6 -4 -5 -4 -2 -14 -5 -3 -2 -1 -22 -31 -7 -7 -10 -1 -19 -22 -18
-5 -1 -2 -2 -3 -2 -3 -6 -5 -6 -7 -7 -3 -7 -7 -3 0 -7 -8 -6 -6 -6 -8 -15 -13 -7 -5 -4 -3 -6 -5 -3 -2 -11 -2 -11 -93 -24 -33 -4 -2 -2 -19 -5
-1 0 -2 -2 -3 -5 -3 -5 -5 -6 0 -1 -6 0 0 -0 -10 -8 -17 -3 -9 -2 -5 -9 -8 -5 -6 -4 -4 -3 -3 -3 -4 -4 -9 -1 -18 0 0 0 -9 -4 -2 -17
0 -0 -0 -1 -3 -6 -4 0 -1 -1 -1 0 0 -2 -11 -9 -6 -13 -14 -21 0 -7 -6 -7 -4 -3 -7 -2 -3 -2 -4 -4 -2 -2 -2 -3 -42 0 0 0 0 -9 -11 -5
-0 0 0 -2 -5 -1 0 0 0 -0 -1 -2 -5 -7 -7 -7 -5 -10 0 -6 -7 -8 0 0 0 -3 -5 -3 -6 -7 -13 -7 -3 -4 -4 -2 -10 -24 0 0 0 -4 -1 -10
0 -0 -0 -0 -1 -3 0 -2 -2 -2 -0 -6 -5 -15 -1 -5 0 0 -6 -21 0 0 0 0 -0 -1 -2 -9 0 -3 -1 -2 -6 -2 -4 -3 -4 -13 -48 0 0 0 -7 -8
-0 -0 0 -2 -0 -1 -3 -2 -3 -1 -0 -2 -1 -2 -2 -4 -3 -6 0 -0 -2 -1 0 0 0 0 -0 -0 -0 -0 -1 -0 -2 -3 -2 -4 -3 -3 -2 -17 -0 0 0 -4
0 -0 0 -2 -0 -3 -6 -2 -2 -1 -4 -1 -2 0 -2 -2 -2 -2 -2 -1 -0 0 0 -0 0 0 -0 0 -0 -0 0 -0 -2 -3 -2 -8 -1 -2 -7 -5 -8 -41 0 -25
0 -1 -0 -1 -0 -1 -1 -7 -3 -2 0 -0 -0 -1 -2 -2 0 -1 -3 -2 -0 0 0 0 0 0 0 0 0 -0 -1 -1 -1 -3 -1 -7 -6 -1 -3 -4 -2 -1 0 0
-1 -1 -0 -0 -1 -3 -19 -1 -0 -13 -4 -1 -2 -2 -2 -1 -1 -1 -0 -0 -0 0 0 0 0 0 0 0 -0 0 -0 -2 -2 -1 -1 -2 -16 -4 -2 -5 -2 -1 -7 0
-3 -1 -1 -2 -6 -18 -1 -2 -7 0 -2 -3 0 -1 -1 -1 -2 -0 0 0 0 0 0 0 0 0 0 0 -0 -0 -1 -1 -1 -2 -0 -6 -0 -12 -5 -10 -1 -2 -1 -14
-6 -3 -3 -3 -4 -2 -1 -2 -5 -1 -3 0 -1 -1 0 -0 0 0 0 0 0 0 0 0 0 0 0 0 -0 -1 -1 -3 -2 -1 -1 -2 -1 -3 -16 -6 -10 -0 -1 -2
-5 -4 -1 -0 -2 -1 -1 -1 -2 -2 0 -0 -1 0 -1 0 0 0 -0 0 0 0 0 0 0 0 0 -0 -0 -0 -1 -0 -0 -0 -0 -0 -0 -0 -7 -9 -1 -3 -2 -4
Wind_Speed
14 20 22 23 21 29 32 30 29 23 21 26 30 33 32 28 27 28 27 27 26 25 24 24 25 26 28 29 29 29 31 29 30 25 27 27 28 27 27 27 26 24 22 20
21 27 30 25 27 27 29 30 31 30 28 29 33 36 33 31 30 28 30 30 27 26 24 25 28 30 33 35 35 35 34 32 31 32 29 31 28 30 29 30 30 30 27 24
28 22 17 30 29 29 29 33 33 33 29 28 34 42 34 28 25 25 28 26 26 25 27 27 31 33 34 36 38 39 37 35 33 32 35 34 32 34 32 31 31 31 29 28
31 28 30 26 28 25 31 25 28 31 32 36 28 43 32 29 27 20 19 22 22 22 26 30 31 32 33 35 36 37 40 41 39 34 36 39 41 38 36 33 30 29 30 29
28 26 28 28 27 26 33 29 30 30 34 39 35 37 35 26 25 22 21 18 20 26 26 31 35 37 38 39 37 38 38 38 38 40 39 40 40 42 42 38 36 32 29 30
33 25 24 26 25 25 28 28 30 34 35 42 36 35 39 33 29 21 11 18 26 29 29 32 33 35 37 38 37 37 40 39 40 41 42 42 43 44 41 41 41 36 33 33
31 33 32 24 29 26 22 28 36 38 34 38 31 30 31 24 24 20 22 28 29 30 28 29 33 35 36 38 38 38 38 41 40 41 42 42 43 43 44 45 42 41 37 35
31 29 20 27 25 30 31 29 34 39 41 45 41 37 29 26 25 26 26 27 26 26 27 32 36 37 37 38 39 39 40 42 41 43 43 42 43 43 42 43 43 43 42 35
31 37 34 25 26 26 29 32 35 44 44 47 43 46 43 35 21 21 22 23 25 27 32 35 36 37 38 39 40 36 37 41 42 44 44 43 42 42 44 44 43 44 43 47
26 40 35 31 25 29 31 33 36 30 36 40 33 32 26 25 22 22 21 26 29 30 30 34 37 37 36 37 37 32 35 38 39 41 41 42 41 40 43 44 45 43 44 56
22 27 29 32 28 30 27 30 29 33 32 39 45 36 26 22 26 31 35 31 30 31 33 36 34 32 32 31 31 30 31 33 38 38 40 40 40 40 38 42 43 41 42 49
18 26 35 34 29 29 32 34 32 32 35 32 35 39 31 33 26 26 26 27 27 32 34 31 31 29 29 31 28 29 29 34 31 35 37 34 36 35 35 34 33 36 37 41
18 22 33 31 26 20 29 32 33 34 38 39 43 39 25 23 27 24 32 33 35 36 36 29 28 29 30 31 30 30 31 32 32 32 30 28 30 32 31 28 23 26 30 32
21 25 27 33 25 19 27 30 31 34 38 42 40 47 38 36 37 36 35 35 34 35 31 30 30 30 30 30 33 31 31 31 33 31 28 27 29 29 28 26 24 23 22 24
24 29 29 31 35 37 41 42 40 39 39 43 45 43 40 42 42 39 38 34 33 31 35 35 33 33 33 33 34 35 32 32 34 34 30 23 27 29 28 24 23 27 22 21
19 30 31 33 30 34 38 37 38 39 40 40 41 42 38 35 35 35 35 35 35 37 34 37 40 40 42 41 36 35 36 37 37 37 35 29 32 30 32 32 31 22 24 22
22 24 26 33 28 30 35 33 31 32 29 30 34 36 36 38 37 37 36 32 37 41 43 44 45 46 48 45 41 40 40 39 39 41 39 32 30 30 38 37 32 26 28 23
19 22 21 27 28 33 30 20 24 28 31 32 34 33 36 34 34 36 37 42 42 43 46 47 50 56 53 49 46 47 46 47 45 43 42 41 28 29 31 33 39 34 29 30
6 17 21 23 25 32 36 27 22 25 33 36 32 34 38 43 49 38 35 40 45 47 51 56 53 51 50 54 54 57 55 54 51 49 45 42 41 28 29 29 35 40 37 33
1 5 17 24 24 25 20 17 23 31 38 25 33 38 45 50 51 42 50 46 42 45 47 49 49 43 41 38 42 47 34 43 47 50 49 45 40 38 28 30 29 27 41 37
12 17 21 32 31 28 23 25 28 29 27 37 40 45 49 50 44 52 36 38 33 35 41 40 39 33 32 40 29 29 37 35 40 47 50 47 42 38 32 28 30 27 28 41
13 21 21 24 25 28 23 27 28 33 37 39 42 47 49 52 51 50 44 36 33 32 29 25 26 24 23 21 24 22 23 26 35 39 48 48 45 38 30 31 30 30 30 34
24 20 22 21 22 25 22 29 29 30 35 40 44 48 51 44 42 40 44 36 32 28 26 25 22 22 18 16 17 21 18 18 19 33 43 46 46 41 38 30 30 29 28 30
21 19 25 27 18 26 29 29 28 35 38 40 41 39 40 41 44 41 36 31 29 27 25 21 19 17 16 13 14 15 12 11 13 19 26 42 46 42 39 38 33 31 31 27
26 24 27 28 25 29 23 29 34 35 36 39 40 37 41 43 43 31 33 29 26 23 19 17 15 13 13 12 11 11 10 13 13 13 27 37 45 41 43 42 40 37 36 32
24 23 24 24 27 26 28 32 30 33 36 38 36 38 40 38 33 30 31 25 21 19 17 15 12 10 10 8 6 5 5 11 8 17 12 32 40 40 41 42 42 46 42 37
Wind_Direction
278 271 268 272 274 274 280 280 284 289 289 287 286 287 289 293 294 292 292 294 295 295 297 298 298 298 296 296 296 295 291 290 285 277 272 269 267 266 265 265 263 258 252 246
270 266 267 275 277 278 277 278 279 283 286 288 285 284 288 289 290 290 290 291 293 296 298 301 301 301 298 296 295 292 290 288 286 281 276 273 270 269 267 265 262 262 257 251
261 276 281 269 270 271 273 271 275 278 286 288 288 279 289 293 289 289 294 295 296 298 299 302 303 303 302 298 296 291 290 288 286 283 281 277 271 271 268 264 263 259 256 252
265 273 273 280 271 276 275 284 284 282 284 282 292 279 292 297 297 294 291 298 297 299 304 305 305 305 305 304 302 300 292 288 285 282 278 275 273 269 265 265 263 260 253 252
270 278 274 272 276 279 273 282 284 286 284 284 287 289 293 299 297 294 297 297 304 303 306 304 303 302 303 302 302 302 300 295 287 282 279 277 274 271 269 267 265 259 255 248
268 285 283 278 279 280 281 285 287 287 287 281 290 291 291 295 298 302 296 310 309 309 309 308 307 308 306 304 303 303 300 298 293 286 281 277 274 273 270 264 261 260 255 254
275 274 274 282 279 283 286 288 284 282 283 285 295 292 297 307 304 304 301 306 311 311 312 312 312 310 310 309 306 304 303 301 298 293 283 278 275 273 269 266 263 258 255 253
281 282 284 282 273 279 279 283 283 284 284 283 288 292 299 310 304 301 303 309 311 313 313 314 313 310 311 312 310 305 304 301 301 297 290 281 276 273 270 266 262 261 257 251
284 277 282 288 286 285 283 281 292 284 285 286 291 289 293 296 293 309 311 309 310 313 313 313 313 312 310 310 311 310 310 306 302 299 294 285 277 272 270 268 263 257 259 248
295 284 278 283 291 283 281 287 289 292 292 290 298 304 307 315 313 312 314 314 313 315 317 316 318 316 316 315 314 312 313 313 310 305 299 289 280 274 269 267 263 259 255 263
300 290 288 288 282 285 289 287 288 288 287 292 293 297 309 317 314 309 308 313 315 315 315 318 320 321 322 322 324 322 322 320 315 312 303 295 283 276 271 267 263 257 255 257
312 301 287 286 288 290 288 285 288 287 291 291 295 294 303 305 314 315 316 315 312 315 317 317 320 323 324 323 327 325 323 320 321 318 311 304 295 283 275 268 265 257 253 255
318 303 295 296 291 283 285 287 289 289 289 286 289 294 315 313 312 310 312 314 314 317 316 316 317 317 321 321 323 323 322 317 314 319 322 316 305 287 276 271 264 257 253 253
312 299 295 290 299 309 293 295 296 293 289 291 290 295 302 304 306 311 312 314 316 317 316 314 313 313 316 318 316 318 319 317 311 309 313 313 305 291 283 271 262 256 255 257
310 296 294 292 291 290 289 289 290 289 290 288 293 296 302 305 307 311 312 315 318 317 317 316 313 311 313 312 311 310 310 311 307 304 304 307 295 291 290 278 277 259 247 254
314 300 297 293 293 291 289 291 291 291 292 293 296 298 306 310 312 314 321 318 315 316 317 312 310 309 308 307 305 302 303 301 300 297 296 298 289 278 284 282 274 262 262 253
309 308 304 292 294 293 289 294 296 298 300 300 300 307 314 314 315 316 319 320 316 313 312 310 308 306 306 303 299 296 297 297 294 289 288 291 290 281 271 269 271 278 266 257
306 304 300 296 296 288 297 309 306 302 300 304 307 313 316 321 320 323 323 318 317 316 313 311 307 302 300 300 296 294 292 290 287 284 281 280 283 281 275 262 263 271 271 261
264 305 296 296 291 282 279 300 312 308 299 304 316 317 315 313 312 319 323 324 320 316 312 309 306 304 300 295 291 287 285 281 278 276 275 274 274 276 273 266 257 258 265 264
286 197 291 288 289 292 314 322 313 305 293 328 318 308 305 306 289 323 322 323 320 317 315 313 310 308 303 300 296 290 277 282 275 271 269 270 269 270 267 265 262 262 255 259
324 296 284 233 266 281 308 308 307 298 313 301 300 303 307 317 323 321 298 299 313 320 321 320 313 304 302 303 294 279 287 280 278 270 264 264 264 263 263 263 261 259 257 248
314 287 287 274 281 278 314 301 296 302 294 294 295 310 299 303 297 291 290 294 300 311 304 303 292 291 285 275 263 262 267 266 282 273 262 258 259 259 256 256 256 256 254 250
284 295 283 288 282 301 324 313 318 302 293 299 302 305 305 292 291 292 294 296 301 312 306 298 293 284 286 286 276 263 260 251 263 270 265 256 253 255 252 250 251 252 252 252
299 315 288 278 307 302 304 306 302 304 297 298 297 292 293 292 295 296 296 303 307 307 307 304 299 288 285 285 270 258 252 248 236 252 263 254 248 248 249 248 250 249 248 249
283 298 273 266 302 299 304 294 300 294 296 296 297 294 297 298 298 304 301 303 307 306 311 316 310 301 289 276 269 253 243 234 232 231 263 253 246 246 245 244 246 247 246 246
289 288 282 281 299 286 274 291 287 293 298 301 297 299 302 302 303 306 302 305 312 313 315 309 300 302 292 292 292 288 237 211 205 201 233 252 245 243 243 244 244 244 244 245